Jorge Medina

Recruteur - Aldosivi
3 Déc 2028
Dimanche
Processus

Personnalité

Adaptabilité (19) Ambition (11) Controverse (8) Loyauté (15) Pression (4) Professionnalisme (7) Sportivité (12) Tempérament (8)

Profil

Style d'entraînement Démocratique
Diplôme Continental A
Détermination 11
Gestion des joueurs 11
Motivation 5
Discipline 8
Satisfaction professionnelle
100%
Fatigue
0%
Rôle Recruteur
Salaire 74.7K p/s
Contrat 14.03.2030

Performance

Comportement Bon
Efficacité de l'entraînement
31%
Développement des joueurs
60%
Prévention des blessures
50%
Mise en place tactique
30%

Événements récents

A participé à une réunion de recrutement 7j
A participé à une réunion de recrutement 14j
A participé à une réunion de recrutement 21j
A participé à une réunion de recrutement 28j
A participé à une réunion de recrutement 35j
A participé à une réunion de recrutement 42j
A participé à une réunion de recrutement 49j
A participé à une réunion de recrutement 56j

Suivi en cours

101
Joueur Club Statut Capacité Confiance Observé Dernière observation Dernier vote
Máximo Magnoli Ferro Carril Oeste Actif 87 / 101 55% 1 01.12.2028 -
Pontus Almqvist Parma Actif 113 / 133 40% 3 29.05.2027 -
Adrián Bernabé Parma Actif 123 / 145 40% 4 26.05.2027 -
Mehdi Dorval Catanzaro Actif 114 / 132 40% 3 25.05.2027 -
Mitchel Bakker Modena Actif 121 / 124 40% 3 23.05.2027 -
Odilon Kossounou Atalanta Actif 130 / 147 40% 2 22.05.2027 -
Gianluca Frabotta Cesena Actif 136 / 118 40% 1 22.05.2027 -
Ilyas Ansah Hull City Actif 144 / 131 40% 3 21.05.2027 -
Stefano Di Mario Virtus Entella Actif 116 / 125 40% 2 21.05.2027 -
Giorgi Kvernadze Frosinone Actif 144 / 122 40% 1 20.05.2027 -
Nicolò Zaniolo Udinese Actif 126 / 147 40% 1 18.05.2027 -
Ilario Monterisi Frosinone Actif 129 / 136 40% 2 14.05.2027 -
Jordan Zemura Udinese Actif 138 / 148 40% 1 14.05.2027 -
Nicolò Cambiaghi Bologna Actif 133 / 125 40% 3 11.05.2027 -
Mikael Egill Ellertsson Genoa Actif 150 / 139 40% 1 09.05.2027 -
Raoul Bellanova Atalanta Actif 168 / 138 40% 4 08.05.2027 -
Niccolò Pierozzi Palermo Actif 137 / 121 40% 1 07.05.2027 -
Danilo Veiga Lecce Actif 113 / 138 40% 1 07.05.2027 -
Hannibal Burnley Actif 138 / 123 40% 1 02.05.2027 -
Lucas Da Cunha Como Actif 140 / 135 40% 1 30.04.2027 -
Stiven Shpendi Empoli Actif 137 / 113 40% 1 29.04.2027 -
Christian Kouan Benevento Actif 103 / 102 40% 1 26.04.2027 -
Marco Pompetti Padova Actif 138 / 138 40% 1 25.04.2027 -
Billy Gilmour Napoli Actif 129 / 133 40% 1 22.04.2027 -
Gianluca Busio Venezia Actif 136 / 143 40% 2 19.04.2027 -
Bjorn Meijer Sampdoria Actif 143 / 119 40% 2 17.04.2027 -
Camillo Tavernelli Arezzo Actif 120 / 128 40% 1 11.04.2027 -
Giacomo Raspadori Atalanta Actif 144 / 154 40% 4 10.04.2027 -
Alessandro Buongiorno Cagliari Actif 152 / 146 40% 2 02.04.2027 -
Matteo Lovato Padova Actif 138 / 140 40% 1 30.03.2027 -
Harry Clarke Preston Actif 131 / 128 40% 2 27.03.2027 -
Terry Devlin Portsmouth Actif 105 / 111 40% 1 27.03.2027 -
Mohamed-Ali Cho Hull City Actif 143 / 135 40% 2 21.03.2027 -
Florentino Luís Ipswich Town Actif 132 / 146 40% 2 20.03.2027 -
Brooke Norton-Cuffy Hull City Actif 155 / 144 40% 5 13.03.2027 -
Trevoh Chalobah Como Actif 139 / 140 40% 1 13.03.2027 -
Xavier Simons Bolton Wanderers Actif 137 / 121 40% 1 12.03.2027 -
Jacob Greaves Ipswich Town Actif 133 / 147 40% 1 11.03.2027 -
Nicolás Arévalo Metalist Actif 120 / 132 40% 2 10.03.2027 -
Michael Baidoo Plymouth Argyle Actif 113 / 138 40% 1 10.03.2027 -
Kristoffer Lund Birmingham Actif 124 / 125 40% 1 09.03.2027 -
Pelle Mattsson Norwich City Actif 111 / 119 40% 1 08.03.2027 -
Japhet Tanganga Sheffield United Actif 116 / 131 40% 1 08.03.2027 -
Toby Collyer West Bromwich Albion Actif 133 / 133 40% 2 06.03.2027 -
Jack Rudoni Coventry City Actif 129 / 119 40% 2 05.03.2027 -
Bobby Clark Derby County Actif 137 / 115 40% 1 03.03.2027 -
Lewis Bate Stockport County Actif 103 / 113 40% 1 28.02.2027 -
Ronnie Edwards Queens Park Rangers Actif 120 / 122 40% 1 25.02.2027 -
Jayden Bogle Leeds United Actif 148 / 145 40% 1 24.02.2027 -
Petar Stanić Ludogorets Actif 123 / 123 40% 1 22.02.2027 -
Adam Randell Bristol City Actif 115 / 136 40% 3 21.02.2027 -
Jack Currie Oxford United Actif 112 / 119 40% 1 14.02.2027 -
Habib Diarra Sunderland Actif 128 / 150 40% 2 13.02.2027 -
Max Bird Birmingham Actif 137 / 143 40% 1 08.02.2027 -
Luke McNally Bristol City Actif 125 / 130 40% 1 08.02.2027 -
Max Arfsten Middlesbrough Actif 127 / 119 40% 1 07.02.2027 -
Alfie Doughty Millwall Actif 118 / 122 40% 2 06.02.2027 -
Teden Mengi Luton Town Actif 143 / 135 40% 1 06.02.2027 -
Daniel Kyerewaa Reading Actif 107 / 100 40% 1 05.02.2027 -
Dara O'Shea Ipswich Town Actif 125 / 127 40% 1 03.02.2027 -
Welington Southampton Actif 114 / 138 40% 2 02.02.2027 -
Jacques Ekomié Wrexham Actif 113 / 136 40% 1 02.02.2027 -
Peter Federico Gornik Zabrze Actif 135 / 131 40% 1 29.11.2026 -
Derensili Sanches Fernandes Huddersfield Town Actif 126 / 125 40% 1 29.11.2026 -
Santiago Montiel Independiente Actif 138 / 137 40% 1 28.11.2026 -
Sorba Thomas Stoke City Actif 140 / 136 40% 1 27.11.2026 -
Thomas Carrique Andorra Actif 119 / 109 40% 1 25.11.2026 -
Ethan Pye Stockport County Actif 103 / 113 40% 1 25.11.2026 -
Gastón Benedetti Estudiantes Actif 137 / 121 40% 2 22.11.2026 -
Jaminton Campaz Rosario Central Actif 125 / 118 40% 1 20.11.2026 -
Bosun Lawal Stoke City Actif 142 / 112 40% 1 20.11.2026 -
Justin Devenny Stoke City Actif 125 / 126 40% 1 19.11.2026 -
Danil Glebov Dinamo Moscow Actif 109 / 114 40% 1 18.11.2026 -
Ramiro Ruiz Rodríguez Atlético Tucumán Actif 118 / 125 40% 1 18.11.2026 -
Justo Giani Umraniyespor Actif 126 / 104 40% 3 17.11.2026 -
Jack McGlynn Stoke City Actif 132 / 128 40% 2 17.11.2026 -
Reda Khadra Qarabag Actif 141 / 124 40% 1 15.11.2026 -
Bradley Zwane SuperSport United Actif 118 / 107 40% 1 13.11.2026 -
Tyrese Campbell Sheffield United Actif 128 / 109 40% 2 11.11.2026 -
Milan van Ewijk Coventry City Actif 128 / 139 40% 1 08.11.2026 -
Ali Ahmed Norwich City Actif 136 / 118 40% 1 05.11.2026 -
Talles Magno New York City Actif 121 / 137 40% 1 05.11.2026 -
Gonzalo Ríos Independiente Rivadavia Actif 109 / 111 40% 2 04.11.2026 -
Leandro Lozano Boca Juniors Actif 133 / 130 40% 1 03.11.2026 -
Manu Morlanes Mallorca Actif 155 / 152 40% 3 01.11.2026 -
Iván Tapia Barracas Central Actif 132 / 126 40% 1 01.11.2026 -
Alex Luna Instituto Actif 127 / 129 40% 1 30.10.2026 -
Toti Wolverhampton Actif 132 / 118 40% 1 29.10.2026 -
Martín Ortega Newell's Old Boys Actif 115 / 124 40% 1 29.10.2026 -
Aidan Morris Middlesbrough Actif 115 / 120 40% 1 27.10.2026 -
Alex Vigo Independiente Rivadavia Actif 108 / 113 40% 1 25.10.2026 -
Damián Fernández Defensa y Justicia Actif 129 / 120 40% 1 24.10.2026 -
Anel Ahmedhodžić Burnley Actif 134 / 118 40% 1 21.10.2026 -
Emiliano Álvarez Progreso Actif 124 / 131 40% 1 17.10.2026 -
Juan Cruz de los Santos Nacional Actif 118 / 124 40% 1 15.10.2026 -
Alan Lescano Argentinos Juniors Actif 127 / 124 40% 1 12.10.2026 -
Esteban Obregón Montevideo City Torque Actif 110 / 111 40% 1 11.10.2026 -
Santiago Toloza O'Higgins Actif 112 / 128 40% 1 08.10.2026 -
Andrés Montaño Cruz Azul Actif 104 / 129 40% 1 08.10.2026 -
Kevin Castañeda Guadalajara Actif 129 / 103 40% 1 05.10.2026 -
Brian Gutiérrez Guadalajara Actif 146 / 113 40% 1 05.10.2026 -